Location: ??????????
(44.2167°N, 135.5333°E)
Time: 14:02:26
(UTC+00:00)

CZ-2C R/B - Pass Details

Date: 15 June 2025
Orbit: 701 x 903 km, 98.2° (Epoch: 15 July)

Event Time Altitude Azimuth Distance (km) Brightness Sun altitude
Rises 14:57:47 0° 24° (NNE) 3,407 7.5 -22.4°
Reaches altitude 10° 15:00:36 10° 36° (NE) 2,433 6.3 -22.4°
Maximum altitude 15:05:03 26° 92° (E) 1,522 4.5 -22.4°
Enters shadow 15:06:23 23° 117° (ESE) 1,607 4.4 -22.4°
